CAPE
6 7 5 4 4 4 3 3 0 0 0 0 0 0 0 0 0 0 0 275 506 283 341 261 361 548 568 734 672 666 676 505 385
2 2 2 1 2 2 2 2 1 0 0 0 0 0 0 0 0 0 0 114 335 292 251 435 643 655 683 624 608 628 713 622 613
0 0 0 0 0 0 0 0 0 0 0 0 0 0 0 0 0 0 0 72 166 126 130 284 434 521 552 590 659 711 736 727 738
0 0 0 0 0 0 0 0 0 0 0 0 0 0 0 0 0 0 0 1 9 51 17 36 21 23 101 418 607 647 653 762 830
0 0 0 0 0 0 0 0 0 0 0 0 0 0 0 0 0 0 0 0 0 0 0 3 1 0 32 121 192 468 557 616 702
0 0 0 0 0 0 0 0 0 0 0 0 0 0 0 0 0 0 0 0 0 0 0 0 12 119 96 43 66 118 136 173 194
0 0 0 0 0 0 0 0 0 0 0 0 0 0 0 0 0 0 0 0 0 2 17 28 12 3 0 0 0 2 10 31 75
0 0 0 0 0 0 0 0 0 0 0 0 0 0 0 0 0 0 0 0 2 8 10 7 4 3 4 4 21 9 5 3 0
0 0 0 0 0 0 0 0 0 0 0 0 0 0 0 0 0 0 0 0 0 3 4 9 3 4 14 7 14 17 6 7 7
0 0 0 0 0 0 0 0 0 0 0 0 0 0 0 0 0 0 0 0 0 2 2 23 20 22 25 40 28 22 14 4 2
0 0 0 0 0 0 0 0 0 0 0 0 0 0 0 0 0 0 0 0 0 0 1 3 6 8 3 3 6 4 5 4 10
0 0 0 0 0 0 0 0 0 0 0 0 0 0 0 0 0 0 0 0 0 0 0 0 0 1 6 8 6 6 6 5 9
0 0 0 0 0 0 0 0 0 0 0 0 0 0 0 0 0 0 0 0 0 0 0 0 0 0 0 1 3 2 2 1 0
0 0 0 0 0 0 0 0 0 0 0 0 0 0 0 0 0 0 0 0 0 0 0 0 0 0 0 0 0 0 0 0 0
0 0 0 0 0 0 0 0 0 0 0 0 0 0 0 0 0 0 0 0 0 0 0 0 0 0 0 0 0 0 0 0 0
0 0 0 0 0 0 0 0 0 0 0 0 0 0 0 0 0 0 0 0 0 0 0 0 0 0 0 0 0 0 0 0 0
0 0 0 0 0 0 0 0 0 0 0 0 0 0 0 0 0 0 0 0 0 0 0 0 0 0 0 0 0 0 0 0 0
0 0 0 0 0 0 0 0 0 0 0 0 0 0 0 0 0 0 0 0 0 0 0 0 0 0 0 0 0 0 0 0 0
0 0 0 0 0 0 0 0 0 0 0 0 0 0 0 0 0 0 0 0 0 0 0 0 0 0 0 0 0 0 0 0 0
0 0 0 0 0 0 0 0 0 0 0 0 0 0 0 0 0 0 0 0 0 0 0 0 0 0 0 0 0 0 0 0 0
CIN
0 0 0 0 0 0 0 0 0 0 0 0 0 0 0 0 0 0 0 -16 -7 -9 -5 -8 -4 0 -1 0 -1 -1 0 -1 0
0 0 0 0 0 0 0 0 0 0 0 0 0 0 0 0 0 0 0 -102 -13 -2 -6 -3 -2 -2 0 -2 -1 0 0 -1 0
0 0 0 0 0 0 0 0 0 0 0 0 0 0 0 0 0 0 0 -141 -43 -42 -30 -4 0 0 0 0 0 -1 -1 0 0
0 0 0 0 0 0 0 0 0 0 0 0 0 0 0 0 0 0 0 -81 -129 -162 -219 -145 -172 -159 -60 0 0 0 0 0 0
0 0 0 0 0 0 0 0 0 0 0 0 0 0 0 0 0 0 0 0 0 0 0 0 0 0 -167 -72 -23 0 0 0 0
0 0 0 0 0 0 0 0 0 0 0 0 0 0 0 0 0 0 0 0 0 0 0 0 -77 -139 -136 -175 -153 -104 -72 -40 -23
0 0 0 0 0 0 0 0 0 0 0 0 0 0 0 0 0 0 0 0 0 0 0 -115 0 0 0 0 0 0 -163 -200 -136
0 0 0 0 0 0 0 0 0 0 0 0 0 0 0 0 0 0 0 0 0 0 -3 0 0 0 0 0 0 0 0 0 0
0 0 0 0 0 0 0 0 0 0 0 0 0 0 0 0 0 0 0 0 0 0 -3 -1 -1 0 0 -2 -1 -1 0 0 0
0 0 0 0 0 0 0 0 0 0 0 0 0 0 0 0 0 0 0 0 0 0 -2 -1 -1 -2 -2 -4 -6 -1 0 -1 0
0 0 0 0 0 0 0 0 0 0 0 0 0 0 0 0 0 0 0 0 0 0 0 0 0 0 0 0 0 0 0 0 -1
0 0 0 0 0 0 0 0 0 0 0 0 0 0 0 0 0 0 0 0 0 0 0 0 0 0 0 0 0 0 0 0 -1
0 0 0 0 0 0 0 0 0 0 0 0 0 0 0 0 0 0 0 0 0 0 0 0 0 0 0 0 0 0 0 0 0
0 0 0 0 0 0 0 0 0 0 0 0 0 0 0 0 0 0 0 0 0 0 0 0 0 0 0 0 0 0 0 0 0
0 0 0 0 0 0 0 0 0 0 0 0 0 0 0 0 0 0 0 0 0 0 0 0 0 0 0 0 0 0 0 0 0
0 0 0 0 0 0 0 0 0 0 0 0 0 0 0 0 0 0 0 0 0 0 0 0 0 0 0 0 0 0 0 0 0
0 0 0 0 0 0 0 0 0 0 0 0 0 0 0 0 0 0 0 0 0 0 0 0 0 0 0 0 0 0 0 0 0
0 0 0 0 0 0 0 0 0 0 0 0 0 0 0 0 0 0 0 0 0 0 0 0 0 0 0 0 0 0 0 0 0
0 0 0 0 0 0 0 0 0 0 0 0 0 0 0 0 0 0 0 0 0 0 0 0 0 0 0 0 0 0 0 0 0
0 0 0 0 0 0 0 0 0 0 0 0 0 0 0 0 0 0 0 0 0 0 0 0 0 0 0 0 0 0 0 0 0
Wind_Speed
11 11 11 11 10 10 10 9 9 9 9 9 9 10 11 11 7 6 8 2 5 3 2 3 5 7 7 5 4 5 6 5 5
11 11 11 10 10 10 9 9 9 8 8 8 9 10 11 6 6 4 5 5 9 6 4 9 10 7 7 5 5 5 7 7 7
10 11 10 10 9 10 10 10 9 9 9 8 9 10 11 6 5 4 4 9 9 9 9 10 9 8 7 5 4 4 4 6 6
10 9 9 10 9 9 8 9 9 9 9 9 9 10 10 6 4 2 4 9 8 8 7 7 8 8 9 9 7 5 4 4 5
5 6 6 9 8 9 10 11 11 11 11 10 10 10 9 5 3 3 3 7 7 6 6 5 6 6 7 8 8 10 9 7 6
1 3 4 7 11 10 11 11 10 12 10 11 10 11 3 3 3 1 7 8 6 5 4 4 4 5 6 6 7 7 7 7 7
5 4 7 11 10 13 15 14 13 10 5 4 7 3 5 4 3 2 8 8 5 4 7 7 7 6 6 6 6 6 7 8 8
4 3 4 4 9 4 7 7 5 7 5 5 5 5 5 2 2 4 9 7 6 6 6 6 5 4 5 5 6 7 7 7 7
3 3 4 4 3 5 5 4 6 7 7 6 6 5 4 2 2 3 9 8 6 5 5 6 5 5 5 4 5 7 7 7 8
2 3 3 3 4 4 5 5 5 6 6 6 6 6 5 4 3 1 7 8 6 6 6 7 7 6 8 10 8 9 9 7 6
3 3 3 4 3 4 4 4 4 5 4 6 6 5 3 3 4 3 3 7 6 6 6 6 7 7 6 5 7 6 6 7 8
3 2 2 3 3 5 4 4 4 5 5 5 5 5 4 2 5 4 3 3 4 5 6 6 6 6 7 6 6 6 7 8 9
3 2 2 3 3 3 3 3 4 4 4 4 5 5 3 3 2 4 4 3 2 3 3 4 4 5 6 6 6 6 7 8 9
2 1 2 2 3 3 2 2 2 4 5 5 5 4 4 3 1 3 5 5 4 3 2 0 1 4 6 7 7 7 8 8 9
1 1 2 2 2 3 3 2 3 2 3 6 6 5 4 3 3 3 3 4 4 4 3 1 2 5 4 5 6 8 9 9 9
2 1 2 2 2 2 3 2 4 3 4 4 5 4 3 3 3 3 3 4 4 4 4 3 2 2 5 7 7 10 9 10 9
3 2 2 3 2 4 3 2 3 2 4 2 1 5 5 4 4 3 3 4 3 4 5 5 5 4 3 4 8 10 9 10 10
3 2 1 2 1 2 2 2 1 2 3 3 1 3 3 4 4 4 2 3 2 4 5 6 6 6 5 5 5 8 8 11 11
3 3 2 2 2 3 2 2 1 1 3 3 1 2 3 1 5 4 4 5 3 5 4 5 6 6 5 8 9 9 10 11 11
3 3 2 2 2 3 3 4 3 1 2 2 2 2 2 4 4 7 4 4 5 5 5 5 5 6 5 5 7 12 12 12 12
Wind_Direction
49 43 39 38 35 31 29 26 22 19 15 11 4 356 348 341 334 335 333 202 141 110 21 346 333 329 302 288 268 256 266 261 242
46 38 34 29 24 20 15 12 8 3 358 355 349 342 336 345 342 25 11 23 50 43 43 13 2 338 321 317 297 280 264 258 261
44 34 29 23 19 14 8 360 353 346 341 337 332 327 323 343 337 9 25 34 41 35 32 35 25 14 1 346 318 311 276 278 271
47 33 26 23 20 17 11 4 355 348 340 329 325 327 324 329 351 42 22 22 27 28 24 22 7 9 18 24 19 3 342 317 281
41 49 24 18 11 3 6 5 5 354 346 317 312 324 337 352 65 47 25 22 13 8 4 356 353 358 22 25 24 37 38 28 11
339 31 354 346 355 343 345 353 355 3 1 3 322 338 329 34 81 31 34 16 356 344 337 344 2 36 28 13 6 14 16 17 23
14 3 345 353 355 6 4 7 5 11 349 350 0 352 333 35 97 24 38 23 26 46 50 42 18 2 352 348 354 13 23 24 23
16 23 24 15 17 10 4 357 2 356 0 353 347 344 350 50 53 50 57 37 13 19 19 12 3 23 24 24 52 28 14 9 4
19 23 29 31 8 3 358 349 340 346 349 355 347 344 348 58 68 39 65 53 35 13 15 28 21 13 17 51 50 39 25 21 12
13 23 29 26 3 3 347 344 340 340 339 344 354 338 348 86 114 72 80 65 38 19 11 24 32 26 31 42 43 36 14 354 340
31 18 21 12 360 337 342 340 340 336 340 340 343 327 360 53 143 135 93 91 77 50 35 24 19 9 355 2 11 360 355 346 342
37 45 18 349 341 342 348 350 350 349 339 334 332 322 331 16 121 150 126 96 82 72 52 40 32 22 15 12 9 1 358 347 335
48 36 355 336 342 343 343 352 343 341 339 322 314 309 299 317 180 130 149 158 127 65 65 48 25 18 7 359 355 348 343 338 333
101 354 307 332 347 348 343 339 1 327 327 310 305 300 288 258 95 142 148 166 152 179 227 146 326 339 344 335 333 332 329 327 326
127 337 318 328 350 342 346 335 326 291 303 313 307 283 265 249 227 226 192 186 184 167 185 193 274 271 304 323 319 325 319 319 317
166 279 322 344 325 319 331 326 344 325 343 346 327 332 331 256 250 241 230 212 203 193 196 201 201 252 288 304 301 307 310 314 312
204 210 277 304 333 340 351 4 340 311 9 3 322 346 339 351 299 270 243 231 211 221 226 221 225 227 223 243 276 295 296 310 310
205 231 255 308 329 308 308 306 316 298 317 21 173 346 314 325 331 350 301 318 278 266 265 247 233 231 225 239 260 276 277 296 302
213 213 245 288 298 301 285 293 221 161 288 328 66 226 190 305 323 331 322 333 287 281 272 263 252 242 230 229 229 242 263 277 288
234 216 225 275 282 276 277 292 287 238 223 205 304 322 283 233 225 285 296 318 302 283 265 268 253 247 230 225 232 242 257 262 274